Home   Weather   Debrecen   Past weeks

Flag for Hungary Past Weather in Debrecen, Hungary — Yesterday and Last 2 Weeks

Now
14 °F

Ice fog.


Feels Like: 14 °F
Forecast: 8 / 22 °F
Wind: No wind

Location: Debrecen Airport

Current Time: Jan 20, 2017 at 11:12:44 pm

Latest Report: Jan 20, 2017 at 10:15 pm


Visibility: 2 mi

Pressure: 30.63 "Hg

Humidity: 92%

Dew Point: 12 °F

Location of DebrecenLocation

Past Weather in Debrecen — Graph

°F

Debrecen Temperature Yesterday

Maximum temperature yesterday: 32 °F (at 1:45 pm)
Minimum temperature yesterday: 19 °F (at 5:45 am)
Average temperature yesterday: 26 °F

High & Low Weather Summary for the Past Weeks

 TemperatureHumidityPressure
High36 °F (Jan 13, 12:15 pm)100% (Jan 13, 7:15 pm)30.69 "Hg (Jan 13, 7:15 pm)
Low1 °F (Jan 8, 6:15 am)40% (Jan 11, 1:15 pm)29.39 "Hg (Jan 13, 11:45 pm)
Average21 °F72%30.17 "Hg
* Reported Jan 5 9:15 pm — Jan 20 9:45 pm, Debrecen, Weather by CustomWeather, © 2017

Note: Actual official high and low records may vary slightly from our data, if they occured in-between our weather recording intervals... More about our weather records

Advertising

Debrecen Weather History for the Previous 24 Hours

Scroll right to see more
 ConditionsComfort  
Time TempWeatherWind HumidityBarometerVisibility
9:45 pm
Fri, Jan 20
14 °FIce fog.1 mph85%30.63 "Hg2 mi
9:15 pm16 °FIce fog.1 mph86%30.60 "Hg2 mi
8:45 pm16 °FIce fog.2 mph86%30.60 "Hg2 mi
8:15 pm16 °FIce fog.3 mph86%30.60 "Hg2 mi
7:45 pm18 °FIce fog.2 mph86%30.60 "Hg2 mi
7:15 pm18 °FIce fog.3 mph86%30.60 "Hg3 mi
6:45 pm18 °FIce fog.3 mph86%30.60 "Hg2 mi
6:21 pm18 °FIce fog.2 mph86%30.66 "Hg3 mi
5:45 pm19 °FClear.3 mph79%30.60 "Hg4 mi
5:15 pm19 °FPassing clouds.3 mph79%30.60 "Hg4 mi
4:45 pm21 °FPassing clouds.2 mph80%30.60 "Hg4 mi
4:15 pm23 °FPassing clouds.2 mph74%30.60 "Hg4 mi
3:45 pm23 °FClear.5 mph74%30.63 "Hg4 mi
3:15 pm25 °FCold.5 mph74%30.60 "Hg4 mi
2:45 pm27 °FClear.5 mph74%30.63 "Hg4 mi
2:15 pm28 °FChilly.5 mph69%30.63 "Hg4 mi
1:45 pm28 °FClear.2 mph69%30.63 "Hg4 mi
1:17 pm28 °FChilly.2 mph64%30.66 "HgN/A
12:45 pm27 °FClear.2 mph69%30.63 "Hg4 mi
12:15 pm27 °FChilly.2 mph74%30.63 "Hg4 mi
11:45 am27 °FClear.2 mph69%30.66 "Hg4 mi
11:15 am25 °FCold.2 mph74%30.66 "Hg4 mi
10:52 am25 °FCold.1 mph69%30.69 "Hg4 mi
10:45 am23 °FIce fog.1 mph80%30.66 "Hg3 mi
10:15 am21 °FIce fog.2 mph80%30.66 "Hg3 mi
9:45 am19 °FIce fog.2 mph86%30.66 "Hg2 mi
9:15 am18 °FIce fog.3 mph86%30.66 "Hg2 mi
8:45 am16 °FIce fog.2 mph86%30.66 "Hg2 mi
8:15 am12 °FIce fog.2 mph92%30.66 "Hg2 mi
7:45 am10 °FIce fog.3 mph85%30.66 "Hg2 mi
7:15 am9 °FIce fog.2 mph85%30.66 "Hg2 mi
6:45 am9 °FIce fog.2 mph92%30.66 "Hg2 mi
6:15 am10 °FIce fog.2 mph85%30.66 "Hg3 mi
5:45 am10 °FIce fog.3 mph92%30.63 "Hg3 mi
Weather by CustomWeather, © 2017

See weather overviewHow to use our weather pages